Location: Marcé
(47.5801°N, 0.3280°W)
Time: 07:37:06
(UTC+01:00)

Courier 1B - Pass Details

Date: 05 December 2021
Orbit: 962 x 1209 km, 28.3° (Epoch: 23 January)

Event Time Altitude Azimuth Distance (km) Brightness Sun altitude
Rises 17:26:23 0° 222° (SW) 4,050 12.5 -3.1°
Reaches altitude 10° 17:30:50 10° 200° (SSW) 3,046 10.9 -3.8°
Maximum altitude 17:34:28 14° 170° (S) 2,699 10.1 -4.3°
Drops below altitude 10° 17:38:01 10° 141° (SE) 2,962 9.9 -4.8°
Sets 17:42:14 0° 118° (ESE) 3,863 10.3 -5.4°
